Simultaneous Nadir Overpasses (SNOs) Predictions

Prediction of SNOs between METOP-A and NOAA-19 Satellite Orbit:

Table of predicted SNOs for the next 14.0 days since TLE Epoch: 2/22/2019
Index Date (METOP-A) Time (METOP-A) Lat,Lon (METOP-A) SZA (METOP-A ) Date (NOAA-19) Time (NOAA-19) Lat,Lon (NOAA-19) SZA (NOAA-19 ) Distance(km) Time Diff (sec)
1 02/26/2019 22:50:07 -79.60, 30.14 91.78 02/26/2019 22:49:00 -79.57, 26.88 91.88 65.72 67
2 02/26/2019 23:40:54 79.38,-164.25 87.95 02/26/2019 23:39:50 79.41,-164.23 87.98 3.58 64
3 02/27/2019 00:31:34 -79.41, 3.30 92.04 02/27/2019 00:30:54 -79.37, 3.33 92.07 3.56 40
4 02/27/2019 01:22:15 79.39, 170.51 87.94 02/27/2019 01:21:50 79.38, 170.53 87.93 1.10 25
5 02/27/2019 02:12:56 -79.38, -22.20 92.09 02/27/2019 02:12:55 -79.38, -22.19 92.09 0.92 1
6 02/27/2019 03:03:37 79.37, 145.01 87.89 02/27/2019 03:03:51 79.38, 145.01 87.90 1.61 14
7 02/27/2019 03:54:18 -79.36, -47.70 92.14 02/27/2019 03:54:56 -79.38, -47.71 92.12 1.73 38
8 02/27/2019 04:44:58 79.38, 119.77 87.88 02/27/2019 04:45:51 79.35, 119.77 87.85 2.98 53




NCC Satellite Simultaneous Nadir Overpasses (SNOs) Prediction Service
